Theta_e
351 349 345 336 320 318 313 316 324 323 321 319 315 317 317 322 320 313 338 345 349 352 355 358 362 359 360 361 360 360 359 359 358 360 361 361 362 362 362 362 361 361 363 361 361 360 360 360 359
348 345 339 329 315 309 312 322 321 327 328 319 317 328 328 325 336 334 338 347 351 353 354 356 362 363 362 361 360 360 359 360 361 359 360 360 362 363 362 362 362 362 363 362 361 359 358 358 358
345 344 327 321 315 310 311 322 325 330 329 318 326 334 332 329 336 337 344 348 352 353 354 354 361 363 361 361 360 360 360 360 360 360 360 361 361 361 362 362 363 363 362 361 361 359 358 357 356
340 338 336 320 314 317 318 325 329 329 332 334 332 326 335 341 338 343 347 351 351 353 352 360 362 362 361 360 360 361 360 360 359 359 360 360 361 362 362 362 362 362 361 361 361 360 359 358 358
342 337 322 319 317 321 324 328 329 327 331 331 331 326 329 340 345 347 347 351 350 351 354 357 362 362 361 361 361 361 360 359 360 359 360 361 362 361 362 361 362 362 361 361 360 359 359 360 361
331 334 319 314 318 322 326 330 328 329 330 330 329 327 328 342 343 345 348 349 353 353 354 356 362 362 360 361 361 360 360 360 360 360 360 361 361 362 361 361 362 362 360 360 360 359 360 361 360
329 327 320 319 318 320 324 332 328 328 327 327 333 324 332 338 343 345 346 349 352 354 353 352 354 358 361 361 359 360 360 359 359 360 360 360 361 361 361 360 360 362 360 359 360 359 359 360 361
335 328 322 321 316 317 327 331 333 329 327 335 335 324 326 336 342 343 343 347 349 351 352 350 351 353 352 353 360 360 359 359 359 359 360 360 360 361 361 359 362 362 359 359 358 358 356 358 360
341 322 315 319 318 321 329 329 336 339 330 332 334 333 336 339 342 340 342 344 345 350 347 348 349 349 350 352 356 358 359 358 358 359 360 354 349 351 355 359 360 359 359 358 358 357 357 358 360
328 316 319 327 325 324 330 331 333 329 327 328 331 335 338 339 337 336 336 339 340 343 346 347 347 347 348 354 350 349 353 349 349 350 347 346 346 349 355 357 359 358 358 357 356 355 356 352 346
327 320 328 326 328 331 329 330 333 326 324 328 327 331 335 335 335 335 336 338 339 344 346 346 345 347 347 349 349 348 346 345 344 345 345 344 347 349 350 349 350 349 354 349 350 349 349 347 345
320 327 331 329 332 331 329 333 330 330 332 333 335 336 335 334 334 337 338 340 342 343 343 345 346 345 344 348 347 346 345 343 339 342 344 345 345 345 345 346 347 347 344 343 344 344 346 348 349
324 329 333 331 331 333 334 330 329 332 338 336 338 337 335 335 336 340 341 342 343 341 343 345 345 344 343 347 346 345 345 344 343 345 345 345 342 340 342 344 344 346 341 339 341 343 344 342 342
328 331 330 332 329 334 330 329 331 332 336 333 334 334 335 335 337 338 339 340 340 341 343 344 344 344 345 345 343 343 343 343 344 346 347 345 340 341 342 341 343 344 342 340 340 343 342 338 338
329 324 326 330 332 330 333 325 326 334 334 331 332 333 334 336 335 334 337 340 342 342 343 342 342 344 344 344 343 342 343 344 345 344 347 346 345 342 338 339 342 341 341 343 343 343 340 339 339
321 320 313 325 330 332 327 318 328 335 333 329 331 333 333 336 335 333 338 341 343 342 341 342 348 344 340 340 342 342 344 346 345 341 344 347 348 345 343 342 342 345 346 341 340 339 338 338 336
305 307 311 321 330 328 325 319 329 334 332 325 328 330 333 333 336 337 341 342 344 342 341 343 342 339 338 342 343 342 345 346 347 344 346 345 348 345 344 344 343 346 345 338 340 339 340 339 337
297 304 310 317 325 326 322 321 327 331 332 326 326 328 329 330 332 337 340 343 343 342 343 343 341 341 340 343 343 343 343 344 345 345 346 348 349 344 345 346 341 348 344 341 339 339 340 337 336
302 300 301 317 327 324 321 320 325 329 331 326 326 326 326 328 334 339 341 343 342 342 340 341 340 340 342 340 340 339 339 339 344 345 345 346 347 349 345 344 345 344 342 340 341 340 337 338 336
302 299 306 319 323 322 320 319 323 326 329 329 327 326 327 327 333 338 339 341 341 340 340 338 340 339 341 341 342 342 340 341 344 346 345 346 348 348 348 345 342 342 342 341 343 341 338 337 337
296 296 300 312 318 320 319 315 319 325 327 331 333 331 329 327 329 335 338 339 340 339 339 339 340 338 339 342 344 343 342 340 341 343 345 347 349 349 349 346 345 343 345 342 341 339 336 333 335
292 301 306 316 309 305 315 302 312 318 319 324 330 329 328 327 329 334 337 337 337 338 341 340 341 337 338 343 342 341 339 337 339 340 344 347 350 349 349 347 347 343 340 342 344 349 342 338 336
299 302 304 315 305 306 309 301 304 316 314 319 327 327 329 330 328 332 335 337 338 340 342 342 342 338 340 342 341 340 338 339 342 344 340 345 347 349 350 348 344 342 339 341 342 343 342 343 340
304 301 303 302 300 296 303 303 302 312 315 320 327 328 328 330 330 332 335 337 338 340 343 343 342 340 342 343 341 340 339 340 339 339 341 344 345 347 349 349 345 343 340 341 341 344 342 341 343
298 295 291 292 293 294 301 303 301 315 322 325 325 328 330 331 331 331 333 334 336 337 342 343 341 339 341 343 343 343 340 340 339 340 341 344 343 344 346 347 345 345 344 345 343 343 344 341 338
295 294 290 287 289 293 303 298 304 317 324 327 329 330 330 332 332 333 333 335 337 338 341 343 341 340 339 340 343 343 341 337 336 340 342 342 343 345 347 348 347 346 347 344 344 345 345 344 344
294 293 298 292 291 291 300 303 313 316 313 319 322 324 323 328 333 333 335 337 337 338 340 343 343 341 341 340 342 343 341 340 337 338 342 343 344 345 346 348 349 348 347 345 346 344 342 343 343
298 300 293 292 287 286 298 298 301 312 310 313 316 318 321 324 325 330 333 337 338 338 341 342 345 344 344 341 341 343 343 343 342 342 340 340 342 343 346 348 349 348 347 345 345 344 343 342 341
296 295 295 294 292 289 292 297 309 310 309 308 312 314 318 320 323 325 328 337 339 341 342 342 341 343 340 343 343 344 344 344 343 343 342 340 341 344 348 346 346 347 346 347 346 345 344 342 341
296 292 295 293 291 293 294 297 312 310 309 309 309 313 316 318 320 322 325 329 335 338 340 341 340 338 338 339 340 342 344 345 344 344 345 345 346 344 343 344 342 342 342 345 346 346 347 344 342
Wind_Speed
5 4 1 1 2 3 2 1 1 2 8 7 16 4 5 6 3 3 3 7 12 8 6 7 11 13 13 13 11 11 12 12 12 11 12 12 12 13 12 12 12 14 15 17 17 17 16 16 16
5 4 2 1 2 2 1 4 3 1 5 18 15 9 5 3 5 10 5 10 11 10 6 5 9 11 12 12 12 12 11 11 11 12 12 11 12 13 12 13 12 14 15 15 16 16 15 14 14
6 3 1 1 1 5 4 2 4 5 9 17 6 6 4 3 11 7 9 13 11 8 6 7 9 11 11 11 10 12 11 12 11 11 11 12 11 12 12 12 12 13 15 14 15 14 13 11 11
4 1 2 1 8 1 2 10 1 2 9 6 11 10 5 8 6 7 15 13 9 8 7 9 12 11 12 11 11 11 12 10 12 11 11 12 12 12 11 12 12 12 14 13 13 12 10 6 10
0 1 2 4 6 4 4 4 7 5 2 5 7 6 6 4 15 15 15 11 10 6 6 6 11 11 11 11 11 11 12 11 11 10 13 11 12 12 12 11 11 12 13 13 12 11 11 12 16
1 1 2 1 5 5 2 2 2 4 7 10 12 9 4 14 16 13 13 10 8 7 5 5 11 11 10 10 10 11 11 11 10 10 12 12 11 11 11 11 11 11 13 12 11 11 13 13 13
2 2 1 5 6 5 4 4 3 10 11 6 11 6 7 11 12 12 12 10 7 5 6 5 5 8 10 9 9 10 11 11 11 11 12 11 11 10 9 9 11 9 11 10 11 10 8 7 11
2 1 1 5 9 5 5 2 8 11 6 14 9 5 11 11 12 10 11 8 6 4 4 5 4 5 5 4 9 9 11 10 10 10 11 10 9 9 10 8 10 9 8 9 8 8 7 9 10
2 2 1 4 10 8 7 6 3 1 12 5 3 7 15 17 14 11 11 7 5 4 3 4 5 4 4 3 5 8 11 10 10 9 11 8 5 4 6 7 9 8 7 7 6 5 6 7 9
2 1 2 4 8 11 10 7 6 10 13 13 17 14 19 19 15 13 12 11 7 5 4 4 5 4 4 2 4 4 5 4 4 5 6 4 3 2 3 6 8 7 6 6 6 4 5 5 2
2 3 4 5 16 15 13 8 3 17 8 20 21 21 20 18 13 12 9 9 10 8 4 5 5 4 4 3 2 2 3 2 3 4 3 3 2 3 3 2 2 3 7 3 4 2 2 0 2
2 2 3 10 16 14 15 11 8 10 3 17 22 23 20 18 15 14 12 11 9 8 6 6 5 5 3 3 2 3 3 3 2 2 2 3 1 2 2 2 2 3 2 3 2 2 4 5 5
3 3 6 13 12 12 13 11 9 10 4 20 20 20 21 17 14 11 10 8 7 8 7 7 6 6 4 4 3 2 2 3 2 3 3 4 3 2 2 1 3 3 3 2 1 2 1 1 3
8 1 7 9 12 13 10 8 10 11 6 23 21 21 18 16 16 12 12 11 9 7 7 6 6 6 5 4 4 3 2 3 2 1 4 4 3 2 1 1 2 0 0 2 2 3 4 4 4
10 5 9 4 9 8 9 6 7 5 12 21 20 18 14 15 14 16 15 15 13 8 8 9 8 7 7 6 5 4 3 3 3 3 4 3 3 2 0 1 1 1 1 2 2 2 3 4 3
6 6 4 6 7 8 2 6 1 1 7 21 20 15 15 15 14 12 12 13 11 8 10 7 8 7 5 6 5 4 5 4 4 2 3 3 3 2 1 1 0 0 0 1 1 1 2 3 2
5 5 5 8 14 8 1 6 8 9 8 17 18 16 16 13 14 14 14 13 12 11 9 7 6 7 7 6 5 4 4 4 4 3 3 3 2 3 2 1 1 1 1 1 3 2 3 2 2
3 0 4 7 14 11 7 6 13 9 5 14 15 15 16 16 17 15 16 13 10 8 8 7 7 7 6 5 4 3 2 2 3 3 3 4 3 4 3 2 1 1 1 2 2 2 2 1 2
3 2 5 6 11 8 7 5 14 6 2 12 10 10 14 18 13 16 15 14 11 8 7 8 8 7 7 3 4 2 2 1 1 2 2 1 3 4 2 3 3 2 2 2 1 1 2 2 2
2 2 1 7 8 5 8 6 10 11 6 7 11 8 15 14 14 14 15 14 14 13 10 7 8 9 5 4 3 3 2 1 1 1 1 1 1 2 3 3 2 3 2 2 2 2 2 1 1
1 3 3 4 5 4 10 1 9 8 2 2 5 3 13 18 18 16 15 16 14 12 12 11 8 9 6 6 4 3 3 2 1 0 2 2 2 2 3 3 1 2 2 2 1 1 2 1 2
2 6 3 10 5 4 5 4 5 9 8 5 8 8 12 17 16 18 18 15 15 13 11 12 10 9 7 7 5 5 4 4 3 3 2 1 4 4 4 4 4 3 1 2 1 0 1 1 3
9 5 7 9 5 6 3 2 4 13 10 14 15 13 14 16 16 18 19 17 13 13 13 12 10 8 7 7 6 5 3 3 1 2 2 2 2 3 3 4 5 5 3 2 2 2 1 1 0
5 1 6 5 5 1 8 7 4 7 17 15 13 13 17 17 17 18 15 11 7 9 10 10 11 9 8 7 7 8 7 5 3 2 3 3 2 2 4 4 4 3 2 3 3 1 1 1 2
4 6 1 4 1 6 6 4 2 8 6 15 15 11 11 8 11 13 14 18 15 12 11 11 12 9 9 8 7 7 7 7 6 5 4 4 2 2 4 5 4 4 4 4 3 3 2 2 1
7 10 7 6 5 5 5 5 4 8 8 11 10 8 7 6 7 12 13 14 13 12 13 13 12 10 8 7 7 6 7 4 4 4 3 4 4 3 4 6 6 6 5 4 4 2 2 2 1
4 3 7 7 3 4 1 2 1 8 12 12 10 11 9 9 7 4 5 9 14 12 13 14 13 11 9 8 6 6 6 6 6 6 4 4 4 3 5 6 6 6 5 5 4 3 3 2 2
8 6 4 3 4 3 3 1 4 2 5 6 8 7 7 7 7 7 4 4 6 6 3 4 6 5 5 5 5 4 5 6 6 4 6 6 4 3 5 4 5 6 5 4 4 3 3 3 2
3 2 6 6 4 6 4 6 1 5 5 5 5 5 6 7 5 5 5 4 4 6 7 5 7 7 1 6 5 5 5 6 5 5 5 6 5 6 6 6 6 6 5 4 4 4 3 4 3
6 3 3 6 3 3 4 5 3 5 7 6 6 5 6 5 4 4 4 5 3 6 9 6 8 10 3 4 5 3 4 4 5 6 6 6 7 5 6 5 6 6 5 6 5 5 4 6 6
Wind_Direction
188 156 127 20 60 46 65 288 269 105 144 143 162 170 178 113 159 187 132 132 129 126 129 125 116 124 130 123 120 117 112 119 120 112 109 113 114 113 112 110 116 113 106 107 103 99 100 105 107
134 144 32 280 76 101 239 339 196 178 136 145 179 93 66 92 74 113 104 141 130 128 122 108 128 139 124 117 119 115 114 113 113 117 119 117 116 115 120 115 110 110 105 107 107 109 110 112 118
151 229 144 99 31 147 156 177 230 342 122 147 147 64 59 81 115 129 134 135 130 117 122 138 141 126 116 118 112 114 112 106 118 117 113 119 116 113 113 112 109 111 107 109 114 112 113 117 130
171 19 281 139 209 254 283 140 223 291 153 85 105 85 90 106 132 133 133 130 121 118 122 143 126 126 116 123 123 117 113 114 111 120 116 114 124 116 117 109 108 110 111 113 114 109 101 132 143
230 247 267 315 187 129 224 93 132 235 221 153 136 94 79 54 110 125 130 127 125 122 129 130 135 130 131 128 120 118 120 118 111 115 122 118 114 116 115 114 117 116 116 117 117 107 95 95 127
301 323 283 113 139 104 190 117 174 226 117 100 104 106 67 127 127 137 128 128 128 131 125 138 138 132 130 123 120 121 119 117 115 108 112 118 119 122 121 130 126 118 116 122 117 107 102 109 130
212 221 242 108 118 106 168 170 232 136 120 95 143 92 116 136 140 137 128 124 128 125 122 125 127 136 133 119 120 120 113 113 114 114 117 117 114 115 123 136 127 113 112 121 118 111 116 125 132
200 157 192 126 160 141 149 232 121 126 84 114 134 129 147 151 133 123 119 116 106 108 117 130 125 97 102 124 127 121 112 113 119 117 117 112 108 115 108 97 113 119 108 113 110 117 120 91 108
57 268 270 129 154 143 160 172 125 291 128 149 108 125 135 129 123 124 121 116 104 137 134 129 119 115 130 127 140 124 120 118 119 112 94 68 52 49 78 106 104 112 117 115 112 97 84 79 104
182 151 311 175 143 146 148 131 101 133 143 105 101 112 132 135 145 144 152 151 151 166 176 150 131 146 162 159 104 92 84 77 77 78 79 63 63 92 89 107 108 112 106 112 112 137 133 105 100
198 195 346 120 131 133 145 102 32 147 146 147 141 144 147 151 152 150 154 168 174 166 165 158 159 171 182 129 106 90 92 92 86 94 84 59 83 60 60 51 66 72 70 41 53 29 44 250 215
257 243 49 135 128 136 152 141 121 151 129 156 145 152 154 159 162 164 167 172 166 169 170 154 165 172 192 136 134 126 123 110 131 159 120 112 103 98 81 46 56 61 58 76 34 326 293 259 241
254 139 103 142 131 155 142 159 147 194 213 146 148 156 166 164 160 164 162 172 169 170 163 169 162 175 178 158 148 143 145 140 187 191 166 136 137 107 81 5 335 14 349 46 31 327 303 263 212
190 142 113 107 171 152 163 153 131 221 184 149 160 170 165 166 165 159 165 170 180 171 166 159 174 181 163 171 174 164 164 146 151 202 152 144 125 134 228 24 317 204 314 333 337 350 356 2 21
156 89 45 281 188 161 142 130 246 111 155 157 169 171 165 171 162 175 174 173 175 173 159 173 175 189 176 189 167 163 184 144 137 151 144 166 171 153 321 308 38 333 293 336 350 6 53 24 36
132 97 111 186 226 152 78 139 95 154 151 161 171 174 173 176 174 170 179 170 174 155 163 173 185 179 173 172 146 172 158 148 150 134 120 138 168 153 237 258 162 332 112 107 17 194 111 84 71
20 153 158 160 202 166 138 140 208 198 196 169 170 174 180 178 178 166 173 169 170 167 158 164 152 150 151 132 129 139 168 144 161 150 142 145 144 150 162 189 266 35 342 41 5 345 42 27 1
165 208 186 170 197 195 173 211 191 218 182 188 173 169 182 179 181 171 168 162 165 162 159 154 149 145 142 104 99 82 84 33 100 144 142 151 117 158 202 188 172 52 336 21 1 12 350 4 290
92 47 303 158 193 143 221 160 175 194 230 198 196 159 167 175 171 166 166 163 158 162 159 162 146 149 139 123 119 94 118 89 321 251 133 104 115 143 206 164 143 106 130 165 90 338 12 330 13
148 139 271 71 100 142 192 143 182 204 207 191 205 162 158 164 164 168 167 167 171 173 173 170 165 158 158 140 133 131 145 165 191 316 286 210 222 131 173 187 177 148 119 94 17 347 326 350 278
153 172 233 140 114 87 121 217 201 209 194 238 252 222 163 165 168 168 172 172 174 178 178 181 173 167 163 136 112 88 86 61 72 317 265 239 189 177 224 183 78 94 111 135 109 8 304 322 333
305 211 172 140 135 187 191 224 191 180 211 214 232 215 174 176 171 169 172 176 179 188 182 183 174 161 165 158 144 154 172 165 199 186 221 226 200 189 207 166 156 159 113 122 145 113 313 53 14
232 177 179 183 149 111 194 85 269 158 205 208 204 199 177 170 175 174 175 178 187 179 185 179 167 155 162 169 160 157 163 184 163 179 202 205 207 213 208 206 162 163 172 138 160 148 74 54 13
243 245 49 58 106 93 200 159 260 192 208 198 201 184 178 173 176 177 165 143 173 184 180 173 172 173 171 170 172 171 172 175 176 188 200 194 185 232 237 213 195 173 172 169 166 131 160 71 36
104 82 340 20 31 205 170 120 173 307 218 188 182 166 175 161 161 169 163 172 187 178 183 175 175 177 179 172 170 173 179 180 206 190 204 159 197 177 218 199 202 186 204 184 172 184 155 135 84
179 157 156 186 172 232 117 219 280 6 20 100 85 80 103 89 188 182 176 185 178 189 182 176 178 184 181 180 179 171 168 173 206 203 197 186 199 197 186 194 207 207 191 184 178 172 184 167 166
197 154 185 106 15 93 128 335 132 55 32 60 83 77 67 47 38 89 144 192 184 191 186 186 180 187 178 183 178 186 167 172 204 206 210 210 214 215 220 205 199 212 213 195 180 183 203 212 221
150 165 69 3 170 143 358 242 245 134 58 54 76 77 68 68 32 34 69 97 149 160 109 144 155 167 162 158 188 198 189 194 198 179 203 220 229 230 228 225 212 199 221 214 195 201 192 215 249
37 68 56 118 118 145 139 261 341 166 142 125 85 68 55 45 40 20 1 31 96 138 113 94 89 88 268 144 164 206 218 213 206 204 196 221 227 215 216 207 209 210 199 218 211 232 230 233 238
106 53 107 129 215 88 125 248 95 122 131 139 137 126 93 60 35 45 20 0 105 139 139 142 126 102 94 56 92 49 274 241 231 220 223 207 227 203 206 211 207 215 214 206 208 232 212 224 238